• Em Portugal
  • Lista de países
  • Para 7 dias
  • Temperatura da água
  • Mapas de satélite
  • Mapa do tempo
  • Widgets de tempo
  • user-avatar
    Iniciar Sessão

    Previsão horária em Rakowice

    Hoje, 19 Setembro, Quarta-feira

    Tempo Temperatura Precipitação Vento Pressão Humidade
    00:00 +20°C° 0 mm 4 m/s 745 mmHg 68%
    01:00 +19°C° 0 mm 3 m/s 745 mmHg 68%
    02:00 +19°C° 0 mm 3 m/s 745 mmHg 68%
    03:00 +19°C° 0 mm 3 m/s 746 mmHg 69%
    04:00 +19°C° 0 mm 3 m/s 746 mmHg 69%
    05:00 +19°C° 0 mm 3 m/s 746 mmHg 69%
    06:00 +19°C° 0 mm 3 m/s 746 mmHg 69%
    07:00 +20°C° 0 mm 3 m/s 746 mmHg 67%
    08:00 +21°C° 0 mm 3 m/s 747 mmHg 63%
    09:00 +24°C° 0 mm 3 m/s 747 mmHg 58%
    10:00 +26°C° 0 mm 2 m/s 747 mmHg 54%
    11:00 +27°C° 0 mm 2 m/s 747 mmHg 51%
    12:00 +28°C° 0 mm 2 m/s 747 mmHg 48%
    13:00 +29°C° 0 mm 2 m/s 747 mmHg 45%
    14:00 +29°C° 0 mm 2 m/s 747 mmHg 45%
    15:00 +29°C° 0 mm 2 m/s 747 mmHg 45%
    16:00 +29°C° 0 mm 1 m/s 747 mmHg 45%
    17:00 +27°C° 0 mm 1 m/s 747 mmHg 51%
    18:00 +25°C° 0 mm 1 m/s 747 mmHg 57%
    19:00 +23°C° 0 mm 1 m/s 747 mmHg 63%
    20:00 +23°C° 0 mm 1 m/s 747 mmHg 65%
    21:00 +21°C° 0 mm 2 m/s 747 mmHg 67%
    22:00 +21°C° 0 mm 2 m/s 747 mmHg 69%
    23:00 +20°C° 0 mm 2 m/s 747 mmHg 70%

    Amanhã, 20 Setembro, Quinta-feira

    Tempo Temperatura Precipitação Vento Pressão Humidade
    00:00 +20°C° 0 mm 2 m/s 747 mmHg 70%
    01:00 +20°C° 0 mm 2 m/s 747 mmHg 71%
    02:00 +19°C° 0 mm 2 m/s 747 mmHg 72%
    03:00 +19°C° 0 mm 2 m/s 747 mmHg 72%
    04:00 +19°C° 0 mm 2 m/s 747 mmHg 73%
    05:00 +19°C° 0 mm 2 m/s 747 mmHg 72%
    06:00 +20°C° 0 mm 2 m/s 748 mmHg 71%
    07:00 +20°C° 0 mm 2 m/s 748 mmHg 71%
    08:00 +23°C° 0 mm 2 m/s 748 mmHg 64%
    09:00 +25°C° 0 mm 2 m/s 748 mmHg 57%
    10:00 +27°C° 0 mm 2 m/s 748 mmHg 51%
    11:00 +28°C° 0 mm 2 m/s 748 mmHg 47%
    12:00 +29°C° 0 mm 2 m/s 748 mmHg 44%
    13:00 +30°C° 0 mm 2 m/s 747 mmHg 41%
    14:00 +30°C° 0 mm 2 m/s 747 mmHg 41%
    15:00 +30°C° 0 mm 2 m/s 747 mmHg 42%
    16:00 +29°C° 0 mm 2 m/s 746 mmHg 42%
    17:00 +28°C° 0 mm 2 m/s 746 mmHg 48%
    18:00 +26°C° 0 mm 2 m/s 746 mmHg 53%
    19:00 +24°C° 0 mm 1 m/s 746 mmHg 59%
    20:00 +23°C° 0 mm 2 m/s 746 mmHg 60%
    21:00 +23°C° 0 mm 2 m/s 746 mmHg 61%
    22:00 +21°C° 0 mm 2 m/s 746 mmHg 61%
    23:00 +21°C° 0 mm 2 m/s 745 mmHg 62%

    Depois de amanhã, 21 Setembro, Sexta-feira

    Tempo Temperatura Precipitação Vento Pressão Humidade
    00:00 +20°C° 0 mm 2 m/s 745 mmHg 63%
    01:00 +20°C° 0 mm 2 m/s 745 mmHg 64%
    02:00 +19°C° 0 mm 3 m/s 744 mmHg 67%
    03:00 +19°C° 0 mm 3 m/s 744 mmHg 69%
    04:00 +19°C° 0 mm 3 m/s 744 mmHg 72%
    05:00 +19°C° 0 mm 3 m/s 743 mmHg 71%
    06:00 +20°C° 0 mm 3 m/s 743 mmHg 70%
    07:00 +20°C° 0 mm 4 m/s 743 mmHg 69%
    08:00 +22°C° 0 mm 4 m/s 743 mmHg 61%
    09:00 +25°C° 0 mm 5 m/s 743 mmHg 54%
    10:00 +27°C° 0 mm 6 m/s 742 mmHg 46%
    11:00 +28°C° 0 mm 6 m/s 742 mmHg 43%
    12:00 +29°C° 0 mm 6 m/s 741 mmHg 40%
    13:00 +30°C° 0 mm 6 m/s 741 mmHg 37%
    14:00 +29°C° 0 mm 6 m/s 741 mmHg 38%
    15:00 +29°C° 0 mm 5 m/s 740 mmHg 39%
    16:00 +29°C° 0 mm 5 m/s 740 mmHg 41%
    17:00 +27°C° 0 mm 5 m/s 740 mmHg 47%
    18:00 +25°C° 0 mm 5 m/s 741 mmHg 53%
    19:00 +22°C° 0 mm 5 m/s 741 mmHg 59%
    20:00 +21°C° 0.4 mm 5 m/s 742 mmHg 67%
    21:00 +19°C° 0.4 mm 5 m/s 743 mmHg 74%
    22:00 +16°C° 0.4 mm 5 m/s 744 mmHg 81%
    23:00 +15°C° 0.3 mm 4 m/s 744 mmHg 81%

    22 Setembro, Sábado

    Tempo Temperatura Precipitação Vento Pressão Humidade
    00:00 +14°C° 0.3 mm 4 m/s 744 mmHg 80%
    01:00 +13°C° 0.3 mm 3 m/s 745 mmHg 79%
    02:00 +13°C° 0.3 mm 3 m/s 745 mmHg 79%
    03:00 +13°C° 0.3 mm 3 m/s 746 mmHg 79%
    04:00 +12°C° 0.3 mm 3 m/s 746 mmHg 79%
    05:00 +12°C° 0 mm 3 m/s 746 mmHg 78%
    06:00 +12°C° 0 mm 3 m/s 747 mmHg 76%
    07:00 +12°C° 0 mm 3 m/s 747 mmHg 75%
    08:00 +13°C° 0.1 mm 4 m/s 747 mmHg 69%
    09:00 +13°C° 0.1 mm 4 m/s 747 mmHg 63%
    10:00 +14°C° 0.1 mm 5 m/s 747 mmHg 58%
    11:00 +15°C° 0.1 mm 5 m/s 747 mmHg 53%
    12:00 +16°C° 0.1 mm 5 m/s 747 mmHg 48%
    13:00 +17°C° 0.1 mm 6 m/s 746 mmHg 43%
    14:00 +17°C° 0 mm 5 m/s 746 mmHg 42%
    15:00 +17°C° 0 mm 5 m/s 746 mmHg 42%
    16:00 +16°C° 0 mm 5 m/s 746 mmHg 42%
    17:00 +15°C° 0 mm 4 m/s 746 mmHg 47%
    18:00 +13°C° 0 mm 3 m/s 746 mmHg 52%
    19:00 +12°C° 0 mm 3 m/s 747 mmHg 57%
    20:00 +11°C° 0 mm 3 m/s 747 mmHg 58%
    21:00 +11°C° 0 mm 3 m/s 747 mmHg 60%
    22:00 +10°C° 0 mm 3 m/s 748 mmHg 62%
    23:00 +10°C° 0 mm 3 m/s 748 mmHg 64%

    23 Setembro, Domingo

    Tempo Temperatura Precipitação Vento Pressão Humidade
    00:00 +9°C° 0 mm 2 m/s 748 mmHg 65%
    01:00 +9°C° 0 mm 2 m/s 748 mmHg 67%
    02:00 +9°C° 0 mm 2 m/s 748 mmHg 69%
    03:00 +8°C° 0 mm 2 m/s 748 mmHg 71%
    04:00 +8°C° 0 mm 2 m/s 748 mmHg 72%
    05:00 +8°C° 0 mm 2 m/s 748 mmHg 72%
    06:00 +9°C° 0 mm 2 m/s 747 mmHg 71%
    07:00 +9°C° 0 mm 2 m/s 747 mmHg 70%
    08:00 +12°C° 0 mm 2 m/s 747 mmHg 62%
    09:00 +13°C° 0 mm 3 m/s 747 mmHg 54%
    10:00 +16°C° 0 mm 3 m/s 746 mmHg 46%
    11:00 +17°C° 0 mm 4 m/s 745 mmHg 43%
    12:00 +18°C° 0 mm 4 m/s 744 mmHg 40%
    13:00 +19°C° 0 mm 5 m/s 743 mmHg 37%
    14:00 +19°C° 0 mm 5 m/s 741 mmHg 39%
    15:00 +19°C° 0 mm 6 m/s 740 mmHg 41%
    16:00 +19°C° 0 mm 6 m/s 739 mmHg 43%
    17:00 +17°C° 0 mm 6 m/s 737 mmHg 47%
    18:00 +17°C° 0 mm 6 m/s 736 mmHg 51%
    19:00 +16°C° 0 mm 7 m/s 735 mmHg 55%
    20:00 +16°C° 0.2 mm 7 m/s 734 mmHg 57%
    21:00 +16°C° 0.2 mm 7 m/s 733 mmHg 59%
    22:00 +16°C° 0.2 mm 7 m/s 732 mmHg 60%
    23:00 +16°C° 0.8 mm 6 m/s 733 mmHg 66%

    24 Setembro, Segunda-feira

    Tempo Temperatura Precipitação Vento Pressão Humidade
    00:00 +16°C° 0.8 mm 6 m/s 733 mmHg 72%
    01:00 +15°C° 0.8 mm 5 m/s 733 mmHg 78%
    02:00 +14°C° 0.4 mm 5 m/s 733 mmHg 78%
    03:00 +13°C° 0.4 mm 6 m/s 733 mmHg 79%
    04:00 +11°C° 0.4 mm 6 m/s 733 mmHg 79%
    05:00 +11°C° 0.1 mm 6 m/s 733 mmHg 78%
    06:00 +11°C° 0.1 mm 6 m/s 733 mmHg 77%
    07:00 +10°C° 0.1 mm 6 m/s 732 mmHg 76%
    08:00 +11°C° 0.1 mm 6 m/s 732 mmHg 72%
    09:00 +12°C° 0.1 mm 7 m/s 732 mmHg 68%
    10:00 +12°C° 0.1 mm 8 m/s 731 mmHg 64%
    11:00 +14°C° 0.1 mm 7 m/s 732 mmHg 65%
    12:00 +14°C° 0.1 mm 7 m/s 732 mmHg 65%
    13:00 +14°C° 0.1 mm 7 m/s 732 mmHg 66%
    14:00 +12°C° 0.2 mm 7 m/s 733 mmHg 70%
    15:00 +11°C° 0.2 mm 8 m/s 734 mmHg 73%
    16:00 +10°C° 0.2 mm 9 m/s 735 mmHg 77%
    17:00 +10°C° 0 mm 8 m/s 736 mmHg 76%
    18:00 +9°C° 0 mm 8 m/s 737 mmHg 74%
    19:00 +9°C° 0 mm 8 m/s 738 mmHg 73%
    20:00 +9°C° 0 mm 8 m/s 739 mmHg 72%
    21:00 +7°C° 0 mm 8 m/s 740 mmHg 71%
    22:00 +7°C° 0 mm 8 m/s 741 mmHg 70%
    23:00 +7°C° 0.2 mm 9 m/s 741 mmHg 72%
    Mostrar mais